,,Stat6,,Stat2,,Stat8,,Stat9,,Stat10,,Wind1,,Wind1,
time,status,PA1M_AVG,status,PR1M_SUM,status,RH1M_AVG,status,SR1M_AVG,status,TA1M_AVG,status,W1dAve1m,status,W1sAve1m,
2009-07-27, 00:00:00,VALID,917.99,VALID,0,VALID,100,VALID,-0.0339617,VALID,20.7461,VALID,11,VALID,0.970022,
2009-07-27, 00:01:00,VALID,917.986,VALID,0,VALID,100,VALID,0,VALID,20.7423,VALID,18,VALID,0.780895,
2009-07-27, 00:02:00,VALID,917.979,VALID,0,VALID,100,VALID,-0.0169808,VALID,20.7488,VALID,27,VALID,0.738181,
2009-07-27, 00:03:00,VALID,917.982,VALID,0,VALID,100,VALID,-0.0169808,VALID,20.7815,VALID,46,VALID,0.727307,
2009-07-27, 00:04:00,VALID,917.99,VALID,0,VALID,100,VALID,0,VALID,20.7683,VALID,19,VALID,0.943638,
2009-07-27, 00:05:00,VALID,917.994,VALID,0,VALID,100,VALID,-0.0169808,VALID,20.7461,VALID,17,VALID,0.916667,
2009-07-27, 00:06:00,VALID,917.989,VALID,0,VALID,100,VALID,-0.0169808,VALID,20.7458,VALID,3,VALID,1.07722,
2009-07-27, 00:07:00,VALID,917.992,VALID,0,VALID,100,VALID,0,VALID,20.7361,VALID,7,VALID,0.75621,
2009-07-27, 00:08:00,VALID,917.991,VALID,0,VALID,100,VALID,0,VALID,20.7296,VALID,9,VALID,0.741655,
2009-07-27, 00:09:00,VALID,917.993,VALID,0,VALID,100,VALID,-0.0339617,VALID,20.7331,VALID,8,VALID,0.406994,
2009-07-27, 00:10:00,VALID,917.993,VALID,0,VALID,100,VALID,-0.0339617,VALID,20.7523,VALID,6,VALID,0.362038,
2009-07-27, 00:11:00,VALID,917.988,VALID,0,VALID,100,VALID,-0.0339617,VALID,20.782,VALID,4,VALID,0.375533,
2009-07-27, 00:12:00,VALID,917.979,VALID,0,VALID,100,VALID,0,VALID,20.7945,VALID,4,VALID,0.328125,
2009-07-27, 00:13:00,VALID,917.969,VALID,0,VALID,100,VALID,-0.0509425,VALID,20.7847,VALID,4,VALID,0.42793,
2009-07-27, 00:14:00,VALID,917.977,VALID,0,VALID,100,VALID,-0.0169808,VALID,20.8172,VALID,4,VALID,0.00976563,
2009-07-27, 00:15:00,VALID,917.981,VALID,0,VALID,100,VALID,-0.0339617,VALID,20.8402,VALID,4,VALID,0.453307,
2009-07-27, 00:16:00,VALID,917.981,VALID,0,VALID,100,VALID,-0.0339617,VALID,20.8334,VALID,3,VALID,0.522204,
2009-07-27, 00:17:00,VALID,917.97,VALID,0,VALID,100,VALID,0,VALID,20.8332,VALID,3,VALID,0.430069,
2009-07-27, 00:18:00,VALID,917.975,VALID,0,VALID,100,VALID,-0.0339617,VALID,20.8464,VALID,3,VALID,0.501635,
2009-07-27, 00:19:00,VALID,917.973,VALID,0,VALID,100,VALID,0.0169808,VALID,20.8619,VALID,3,VALID,0.397507,
2009-07-27, 00:20:00,VALID,917.969,VALID,0,VALID,100,VALID,0,VALID,20.8951,VALID,7,VALID,0.409157,
2009-07-27, 00:21:00,VALID,917.971,VALID,0,VALID,100,VALID,-0.0169808,VALID,20.9213,VALID,16,VALID,0.656929,
2009-07-27, 00:22:00,VALID,917.982,VALID,0,VALID,100,VALID,0,VALID,20.9116,VALID,33,VALID,0.828852,
2009-07-27, 00:23:00,VALID,917.994,VALID,0,VALID,100,VALID,0,VALID,20.9081,VALID,14,VALID,0.798478,
2009-07-27, 00:24:00,VALID,917.995,VALID,0,VALID,100,VALID,-0.0169808,VALID,20.8951,VALID,19,VALID,1.00608,
2009-07-27, 00:25:00,VALID,918.006,VALID,0,VALID,100,VALID,-0.0169808,VALID,20.9076,VALID,16,VALID,0.841947,
2009-07-27, 00:26:00,VALID,918.018,VALID,0,VALID,100,VALID,-0.0169808,VALID,20.9013,VALID,10,VALID,0.669969,
2009-07-27, 00:27:00,VALID,918.021,VALID,0,VALID,100,VALID,0,VALID,20.9016,VALID,13,VALID,0.709666,
2009-07-27, 00:28:00,VALID,918.039,VALID,0,VALID,100,VALID,-0.0169808,VALID,20.8851,VALID,12,VALID,0.564453,
2009-07-27, 00:29:00,VALID,918.027,VALID,0,VALID,100,VALID,0.0169808,VALID,20.8754,VALID,20,VALID,0.902166,
2009-07-27, 00:30:00,VALID,918.037,VALID,0,VALID,100,VALID,0,VALID,20.8821,VALID,18,VALID,0.756288,
2009-07-27, 00:31:00,VALID,918.037,VALID,0,VALID,100,VALID,-0.0169808,VALID,20.9016,VALID,19,VALID,0.844295,
2009-07-27, 00:32:00,VALID,918.022,VALID,0,VALID,100,VALID,0.0169808,VALID,20.9178,VALID,24,VALID,0.767113,
2009-07-27, 00:33:00,VALID,918.023,VALID,0,VALID,100,VALID,-0.0169808,VALID,20.9341,VALID,25,VALID,0.682958,
2009-07-27, 00:34:00,VALID,918.019,VALID,0,VALID,100,VALID,0.0339617,VALID,20.9133,VALID,23,VALID,0.695499,
2009-07-27, 00:35:00,VALID,918.032,VALID,0,VALID,100,VALID,0.0169808,VALID,20.9368,VALID,27,VALID,0.926314,
2009-07-27, 00:36:00,VALID,918.023,VALID,0,VALID,100,VALID,0.0169808,VALID,20.9338,VALID,31,VALID,1.06993,
2009-07-27, 00:37:00,VALID,918.014,VALID,0,VALID,100,VALID,0.0339617,VALID,20.9403,VALID,26,VALID,1.01524,
2009-07-27, 00:38:00,VALID,918.014,VALID,0,VALID,100,VALID,0.0169808,VALID,20.96,VALID,28,VALID,1.01719,
2009-07-27, 00:39:00,VALID,918.003,VALID,0,VALID,100,VALID,-0.0169808,VALID,20.9665,VALID,36,VALID,1.03776,
2009-07-27, 00:40:00,VALID,917.997,VALID,0,VALID,100,VALID,0.0339617,VALID,20.963,VALID,28,VALID,1.06875,
2009-07-27, 00:41:00,VALID,917.993,VALID,0,VALID,100,VALID,0.0169808,VALID,20.96,VALID,24,VALID,1.26664,
2009-07-27, 00:42:00,VALID,917.999,VALID,0,VALID,100,VALID,0,VALID,20.9308,VALID,23,VALID,1.08194,
2009-07-27, 00:43:00,VALID,917.98,VALID,0,VALID,100,VALID,-0.0169808,VALID,20.9405,VALID,16,VALID,1.19767,
2009-07-27, 00:44:00,VALID,917.983,VALID,0,VALID,100,VALID,-0.0679233,VALID,20.9048,VALID,9,VALID,1.01935,
2009-07-27, 00:45:00,VALID,917.965,VALID,0,VALID,100,VALID,-0.0679233,VALID,20.8989,VALID,25,VALID,1.07584,
2009-07-27, 00:46:00,VALID,917.953,VALID,0,VALID,100,VALID,-0.0509425,VALID,20.8951,VALID,19,VALID,1.3551,
2009-07-27, 00:47:00,VALID,917.96,VALID,0,VALID,100,VALID,-0.0339617,VALID,20.8921,VALID,354,VALID,0.734184,
2009-07-27, 00:48:00,VALID,917.964,VALID,0,VALID,100,VALID,-0.0169808,VALID,20.8919,VALID,31,VALID,0.797637,
2009-07-27, 00:49:00,VALID,917.976,VALID,0,VALID,100,VALID,-0.0679233,VALID,20.9086,VALID,15,VALID,0.830412,
2009-07-27, 00:50:00,VALID,917.979,VALID,0,VALID,100,VALID,-0.0679233,VALID,20.8856,VALID,9,VALID,1.03418,
2009-07-27, 00:51:00,VALID,917.977,VALID,0,VALID,100,VALID,-0.0679233,VALID,20.8564,VALID,21,VALID,1.73232,
2009-07-27, 00:52:00,VALID,917.986,VALID,0,VALID,100,VALID,-0.0679233,VALID,20.8505,VALID,18,VALID,1.00312,
2009-07-27, 00:53:00,VALID,917.976,VALID,0,VALID,100,VALID,-0.0509425,VALID,20.8497,VALID,16,VALID,0.84048,
2009-07-27, 00:54:00,VALID,917.969,VALID,0,VALID,100,VALID,-0.0679233,VALID,20.8532,VALID,28,VALID,1.00744,
2009-07-27, 00:55:00,VALID,917.955,VALID,0,VALID,100,VALID,-0.0679233,VALID,20.8432,VALID,358,VALID,0.930035,
2009-07-27, 00:56:00,VALID,917.924,VALID,0,VALID,100,VALID,-0.0339617,VALID,20.8272,VALID,356,VALID,1.05352,
2009-07-27, 00:57:00,VALID,917.908,VALID,0,VALID,100,VALID,0.0339617,VALID,20.8067,VALID,14,VALID,1.11223,
2009-07-27, 00:58:00,VALID,917.9,VALID,0,VALID,100,VALID,0.0679233,VALID,20.7864,VALID,17,VALID,1.56177,
2009-07-27, 00:59:00,VALID,917.895,VALID,0,VALID,100,VALID,0.0849042,VALID,20.7994,VALID,20,VALID,1.52772,
2009-07-27, 01:00:00,VALID,917.91,VALID,0,VALID,100,VALID,0.0679233,VALID,20.7994,VALID,34,VALID,1.56055,
2009-07-27, 01:01:00,VALID,917.932,VALID,0,VALID,100,VALID,0.0849042,VALID,20.8516,VALID,30,VALID,1.44881,
2009-07-27, 01:02:00,VALID,917.938,VALID,0,VALID,100,VALID,0.0339617,VALID,20.8259,VALID,14,VALID,1.75493,
2009-07-27, 01:03:00,VALID,917.956,VALID,0,VALID,100,VALID,0.0679233,VALID,20.7964,VALID,15,VALID,1.27782,
2009-07-27, 01:04:00,VALID,917.984,VALID,0,VALID,100,VALID,0.0849042,VALID,20.7994,VALID,13,VALID,1.66254,
2009-07-27, 01:05:00,VALID,917.978,VALID,0,VALID,100,VALID,0.0509425,VALID,20.7704,VALID,16,VALID,2.10633,
2009-07-27, 01:06:00,VALID,917.987,VALID,0,VALID,100,VALID,0.0849042,VALID,20.7507,VALID,2,VALID,1.5645,
2009-07-27, 01:07:00,VALID,917.984,VALID,0,VALID,100,VALID,0.0849042,VALID,20.7342,VALID,340,VALID,1.09266,
2009-07-27, 01:08:00,VALID,917.962,VALID,0,VALID,100,VALID,0.0679233,VALID,20.7477,VALID,19,VALID,1.10938,
2009-07-27, 01:09:00,VALID,917.94,VALID,0,VALID,100,VALID,0.0509425,VALID,20.7704,VALID,23,VALID,0.865057,
2009-07-27, 01:10:00,VALID,917.905,VALID,0,VALID,100,VALID,0.0339617,VALID,20.7712,VALID,15,VALID,1.26019,
2009-07-27, 01:11:00,VALID,917.889,VALID,0,VALID,100,VALID,0.0339617,VALID,20.7475,VALID,20,VALID,1.55687,
2009-07-27, 01:12:00,VALID,917.863,VALID,0,VALID,100,VALID,0,VALID,20.769,VALID,78,VALID,0.633814,
2009-07-27, 01:13:00,VALID,917.842,VALID,0,VALID,100,VALID,-0.0509425,VALID,20.7558,VALID,23,VALID,1.58873,
2009-07-27, 01:14:00,VALID,917.822,VALID,0,VALID,100,VALID,-0.0509425,VALID,20.7204,VALID,18,VALID,1.49033,
2009-07-27, 01:15:00,VALID,917.805,VALID,0,VALID,100,VALID,-0.0509425,VALID,20.6939,VALID,16,VALID,1.23438,
2009-07-27, 01:16:00,VALID,917.804,VALID,0,VALID,100,VALID,-0.0679233,VALID,20.7004,VALID,15,VALID,1.05278,
2009-07-27, 01:17:00,VALID,917.816,VALID,0,VALID,100,VALID,-0.0509425,VALID,20.7071,VALID,10,VALID,1.20621,
2009-07-27, 01:18:00,VALID,917.837,VALID,0,VALID,100,VALID,-0.0339617,VALID,20.6874,VALID,10,VALID,1.53212,
2009-07-27, 01:19:00,VALID,917.857,VALID,0,VALID,100,VALID,-0.0169808,VALID,20.6874,VALID,20,VALID,1.53178,
2009-07-27, 01:20:00,VALID,917.883,VALID,0,VALID,100,VALID,-0.0339617,VALID,20.6671,VALID,24,VALID,1.61626,
2009-07-27, 01:21:00,VALID,917.911,VALID,0,VALID,100,VALID,-0.0509425,VALID,20.6776,VALID,359,VALID,1.31176,
2009-07-27, 01:22:00,VALID,917.909,VALID,0,VALID,100,VALID,-0.0679233,VALID,20.6584,VALID,14,VALID,1.17746,
2009-07-27, 01:23:00,VALID,917.912,VALID,0,VALID,100,VALID,-0.0169808,VALID,20.6679,VALID,8,VALID,1.38579,
2009-07-27, 01:24:00,VALID,917.907,VALID,0,VALID,100,VALID,-0.0169808,VALID,20.6549,VALID,6,VALID,0.984012,
2009-07-27, 01:25:00,VALID,917.89,VALID,0,VALID,100,VALID,-0.0169808,VALID,20.6582,VALID,22,VALID,0.945494,
2009-07-27, 01:26:00,VALID,917.864,VALID,0,VALID,100,VALID,-0.0509425,VALID,20.6322,VALID,45,VALID,1.02489,
2009-07-27, 01:27:00,VALID,917.86,VALID,0,VALID,100,VALID,-0.0679233,VALID,20.6257,VALID,56,VALID,1.06734,
2009-07-27, 01:28:00,VALID,917.857,VALID,0,VALID,100,VALID,-0.0339617,VALID,20.6392,VALID,35,VALID,0.886133,
2009-07-27, 01:29:00,VALID,917.856,VALID,0,VALID,100,VALID,-0.0169808,VALID,20.616,VALID,12,VALID,1.10087,
2009-07-27, 01:30:00,VALID,917.86,VALID,0,VALID,100,VALID,-0.0679233,VALID,20.6003,VALID,11,VALID,0.84157,
2009-07-27, 01:31:00,VALID,917.852,VALID,0,VALID,100,VALID,-0.0509425,VALID,20.6,VALID,7,VALID,0.636265,
2009-07-27, 01:32:00,VALID,917.855,VALID,0,VALID,100,VALID,-0.0679233,VALID,20.6165,VALID,17,VALID,1.00651,
2009-07-27, 01:33:00,VALID,917.861,VALID,0,VALID,100,VALID,-0.0509425,VALID,20.6132,VALID,17,VALID,0.90439,
2009-07-27, 01:34:00,VALID,917.858,VALID,0,VALID,100,VALID,-0.0679233,VALID,20.6,VALID,28,VALID,0.960582,
2009-07-27, 01:35:00,VALID,917.855,VALID,0,VALID,100,VALID,-0.0509425,VALID,20.5968,VALID,36,VALID,0.705078,
2009-07-27, 01:36:00,VALID,917.853,VALID,0,VALID,100,VALID,-0.0339617,VALID,20.59,VALID,38,VALID,0.676711,
2009-07-27, 01:37:00,VALID,917.855,VALID,0,VALID,100,VALID,-0.0339617,VALID,20.5732,VALID,45,VALID,0.502418,
2009-07-27, 01:38:00,VALID,917.836,VALID,0,VALID,100,VALID,-0.0339617,VALID,20.593,VALID,50,VALID,0.400981,
2009-07-27, 01:39:00,VALID,917.835,VALID,0,VALID,100,VALID,-0.0339617,VALID,20.6065,VALID,49,VALID,0.0759943,
2009-07-27, 01:40:00,VALID,917.811,VALID,0,VALID,100,VALID,-0.0679233,VALID,20.5935,VALID,14,VALID,0.465774,
2009-07-27, 01:41:00,VALID,917.797,VALID,0,VALID,100,VALID,-0.0169808,VALID,20.5903,VALID,14,VALID,0.291146,
2009-07-27, 01:42:00,VALID,917.792,VALID,0,VALID,100,VALID,-0.0849042,VALID,20.59,VALID,15,VALID,0.565995,
2009-07-27, 01:43:00,VALID,917.795,VALID,0,VALID,100,VALID,0,VALID,20.5897,VALID,21,VALID,0.545015,
2009-07-27, 01:44:00,VALID,917.793,VALID,0,VALID,100,VALID,-0.0509425,VALID,20.5803,VALID,18,VALID,0.982986,
2009-07-27, 01:45:00,VALID,917.801,VALID,0,VALID,100,VALID,-0.0509425,VALID,20.561,VALID,359,VALID,1.23562,
2009-07-27, 01:46:00,VALID,917.817,VALID,0,VALID,100,VALID,-0.0509425,VALID,20.5708,VALID,353,VALID,0.598292,
2009-07-27, 01:47:00,VALID,917.829,VALID,0,VALID,100,VALID,-0.0169808,VALID,20.5868,VALID,352,VALID,0.32976,
2009-07-27, 01:48:00,VALID,917.837,VALID,0,VALID,100,VALID,0,VALID,20.5997,VALID,351,VALID,0.60032,
2009-07-27, 01:49:00,VALID,917.832,VALID,0,VALID,100,VALID,-0.0509425,VALID,20.5992,VALID,351,VALID,0.6873,
2009-07-27, 01:50:00,VALID,917.825,VALID,0,VALID,100,VALID,0,VALID,20.606,VALID,355,VALID,0.465554,
2009-07-27, 01:51:00,VALID,917.831,VALID,0,VALID,100,VALID,0,VALID,20.6022,VALID,355,VALID,0.500347,
2009-07-27, 01:52:00,VALID,917.827,VALID,0,VALID,100,VALID,-0.0169808,VALID,20.609,VALID,355,VALID,0.359201,
2009-07-27, 01:53:00,VALID,917.836,VALID,0,VALID,100,VALID,-0.0169808,VALID,20.6157,VALID,355,VALID,0.452592,
2009-07-27, 01:54:00,VALID,917.831,VALID,0,VALID,100,VALID,0,VALID,20.6257,VALID,355,VALID,0.46441,
2009-07-27, 01:55:00,VALID,917.838,VALID,0,VALID,100,VALID,-0.0169808,VALID,20.6027,VALID,355,VALID,0.547763,
2009-07-27, 01:56:00,VALID,917.826,VALID,0,VALID,100,VALID,0,VALID,20.5895,VALID,355,VALID,0.653773,
2009-07-27, 01:57:00,VALID,917.81,VALID,0,VALID,100,VALID,0,VALID,20.58,VALID,357,VALID,0.70149,
2009-07-27, 01:58:00,VALID,917.787,VALID,0,VALID,100,VALID,0,VALID,20.5732,VALID,359,VALID,0.595833,
2009-07-27, 01:59:00,VALID,917.792,VALID,0,VALID,100,VALID,-0.0339617,VALID,20.5608,VALID,359,VALID,0.461133,
2009-07-27, 02:00:00,VALID,917.794,VALID,0,VALID,100,VALID,0,VALID,20.554,VALID,359,VALID,0.505149,
2009-07-27, 02:01:00,VALID,917.782,VALID,0,VALID,100,VALID,-0.0339617,VALID,20.5538,VALID,359,VALID,0.465376,
2009-07-27, 02:02:00,VALID,917.787,VALID,0,VALID,100,VALID,-0.0339617,VALID,20.5668,VALID,359,VALID,0.0474077,
2009-07-27, 02:03:00,VALID,917.781,VALID,0,VALID,100,VALID,-0.0339617,VALID,20.5595,VALID,359,VALID,0,
2009-07-27, 02:04:00,VALID,917.76,VALID,0,VALID,100,VALID,-0.0169808,VALID,20.5662,VALID,359,VALID,0,
2009-07-27, 02:05:00,VALID,917.744,VALID,0,VALID,100,VALID,0,VALID,20.5703,VALID,359,VALID,0,
2009-07-27, 02:06:00,VALID,917.726,VALID,0,VALID,100,VALID,-0.0169808,VALID,20.5703,VALID,359,VALID,0.153274,
2009-07-27, 02:07:00,VALID,917.697,VALID,0,VALID,100,VALID,-0.0339617,VALID,20.5575,VALID,359,VALID,0.389535,
2009-07-27, 02:08:00,VALID,917.69,VALID,0,VALID,100,VALID,-0.0169808,VALID,20.5405,VALID,359,VALID,0.00835756,
2009-07-27, 02:09:00,VALID,917.669,VALID,0,VALID,100,VALID,-0.0339617,VALID,20.5273,VALID,359,VALID,0,
2009-07-27, 02:10:00,VALID,917.646,VALID,0,VALID,100,VALID,-0.0339617,VALID,20.5083,VALID,359,VALID,0,
2009-07-27, 02:11:00,VALID,917.63,VALID,0,VALID,100,VALID,-0.0169808,VALID,20.5054,VALID,359,VALID,0,
2009-07-27, 02:12:00,VALID,917.601,VALID,0,VALID,100,VALID,-0.0339617,VALID,20.4891,VALID,359,VALID,0,
2009-07-27, 02:13:00,VALID,917.57,VALID,0,VALID,100,VALID,-0.0169808,VALID,20.4567,VALID,359,VALID,0,
2009-07-27, 02:14:00,VALID,917.544,VALID,0,VALID,100,VALID,-0.0509425,VALID,20.411,VALID,360,VALID,0.376367,
2009-07-27, 02:15:00,VALID,917.517,VALID,0,VALID,100,VALID,-0.0169808,VALID,20.369,VALID,1,VALID,0.519055,
2009-07-27, 02:16:00,VALID,917.497,VALID,0,VALID,100,VALID,0,VALID,20.352,VALID,36,VALID,0.720348,
2009-07-27, 02:17:00,VALID,917.5,VALID,0,VALID,100,VALID,0,VALID,20.3196,VALID,36,VALID,0.603693,
2009-07-27, 02:18:00,VALID,917.493,VALID,0,VALID,100,VALID,0,VALID,20.3071,VALID,36,VALID,0.675872,
2009-07-27, 02:19:00,VALID,917.509,VALID,0,VALID,100,VALID,0,VALID,20.2964,VALID,36,VALID,0.506904,
2009-07-27, 02:20:00,VALID,917.507,VALID,0,VALID,100,VALID,-0.0509425,VALID,20.2577,VALID,50,VALID,0.598189,
2009-07-27, 02:21:00,VALID,917.515,VALID,0,VALID,100,VALID,-0.0169808,VALID,20.2522,VALID,51,VALID,0.699033,
2009-07-27, 02:22:00,VALID,917.515,VALID,0,VALID,100,VALID,-0.0169808,VALID,20.2652,VALID,50,VALID,0.499092,
2009-07-27, 02:23:00,VALID,917.506,VALID,0,VALID,100,VALID,0,VALID,20.2619,VALID,50,VALID,0.392987,
2009-07-27, 02:24:00,VALID,917.504,VALID,0,VALID,100,VALID,-0.0339617,VALID,20.2517,VALID,50,VALID,0.186955,
2009-07-27, 02:25:00,VALID,917.484,VALID,0,VALID,100,VALID,0,VALID,20.2484,VALID,50,VALID,0,
2009-07-27, 02:26:00,VALID,917.469,VALID,0,VALID,100,VALID,-0.0509425,VALID,20.236,VALID,50,VALID,0,
2009-07-27, 02:27:00,VALID,917.438,VALID,0,VALID,100,VALID,-0.0169808,VALID,20.2262,VALID,50,VALID,0,
2009-07-27, 02:28:00,VALID,917.405,VALID,0,VALID,100,VALID,-0.0679233,VALID,20.2362,VALID,50,VALID,0,
2009-07-27, 02:29:00,VALID,917.368,VALID,0,VALID,100,VALID,-0.0339617,VALID,20.2587,VALID,50,VALID,0,
2009-07-27, 02:30:00,VALID,917.346,VALID,0,VALID,100,VALID,-0.0849042,VALID,20.2817,VALID,50,VALID,0,
2009-07-27, 02:31:00,VALID,917.331,VALID,0,VALID,100,VALID,-0.0849042,VALID,20.3109,VALID,50,VALID,0,
2009-07-27, 02:32:00,VALID,917.316,VALID,0,VALID,100,VALID,-0.0339617,VALID,20.3206,VALID,14,VALID,0.454688,
2009-07-27, 02:33:00,VALID,917.31,VALID,0,VALID,100,VALID,-0.101885,VALID,20.2327,VALID,7,VALID,0.407203,
2009-07-27, 02:34:00,VALID,917.299,VALID,0,VALID,100,VALID,-0.101885,VALID,20.2138,VALID,18,VALID,0.452762,
2009-07-27, 02:35:00,VALID,917.294,VALID,0,VALID,100,VALID,-0.101885,VALID,20.2265,VALID,20,VALID,0.0154433,
2009-07-27, 02:36:00,VALID,917.269,VALID,0,VALID,100,VALID,-0.0679233,VALID,20.2425,VALID,20,VALID,0,
2009-07-27, 02:37:00,VALID,917.252,VALID,0,VALID,100,VALID,-0.0339617,VALID,20.2649,VALID,21,VALID,0.534157,
2009-07-27, 02:38:00,VALID,917.231,VALID,0,VALID,100,VALID,-0.0679233,VALID,20.2904,VALID,22,VALID,0.532493,
2009-07-27, 02:39:00,VALID,917.218,VALID,0,VALID,100,VALID,0,VALID,20.2941,VALID,26,VALID,0.603198,
2009-07-27, 02:40:00,VALID,917.188,VALID,0,VALID,100,VALID,-0.0509425,VALID,20.2906,VALID,32,VALID,0.61319,
2009-07-27, 02:41:00,VALID,917.168,VALID,0,VALID,100,VALID,-0.0679233,VALID,20.3174,VALID,32,VALID,0.485119,
2009-07-27, 02:42:00,VALID,917.154,VALID,0,VALID,100,VALID,-0.0849042,VALID,20.3271,VALID,32,VALID,0.50799,
2009-07-27, 02:43:00,VALID,917.138,VALID,0,VALID,100,VALID,-0.118866,VALID,20.3236,VALID,33,VALID,0.534028,
2009-07-27, 02:44:00,VALID,917.133,VALID,0,VALID,100,VALID,-0.0849042,VALID,20.3206,VALID,33,VALID,0.375206,
2009-07-27, 02:45:00,VALID,917.146,VALID,0,VALID,100,VALID,-0.0679233,VALID,20.3134,VALID,33,VALID,0.398801,
2009-07-27, 02:46:00,VALID,917.137,VALID,0,VALID,100,VALID,-0.0849042,VALID,20.3204,VALID,33,VALID,0.217361,
2009-07-27, 02:47:00,VALID,917.126,VALID,0,VALID,100,VALID,-0.101885,VALID,20.3044,VALID,33,VALID,0,
2009-07-27, 02:48:00,VALID,917.127,VALID,0,VALID,100,VALID,-0.0849042,VALID,20.2914,VALID,33,VALID,0.0144097,
2009-07-27, 02:49:00,VALID,917.119,VALID,0,VALID,100,VALID,-0.101885,VALID,20.2687,VALID,102,VALID,0.587936,
2009-07-27, 02:50:00,VALID,917.087,VALID,0,VALID,100,VALID,-0.0679233,VALID,20.2425,VALID,148,VALID,0.737891,
2009-07-27, 02:51:00,VALID,917.066,VALID,0,VALID,100,VALID,-0.0509425,VALID,20.2265,VALID,167,VALID,0.711496,
2009-07-27, 02:52:00,VALID,917.028,VALID,0,VALID,100,VALID,-0.0679233,VALID,20.2103,VALID,169,VALID,0.790483,
2009-07-27, 02:53:00,VALID,916.999,VALID,0,VALID,100,VALID,-0.0339617,VALID,20.1873,VALID,149,VALID,0.952009,
2009-07-27, 02:54:00,VALID,916.977,VALID,0,VALID,100,VALID,-0.118866,VALID,20.1486,VALID,157,VALID,0.882994,
2009-07-27, 02:55:00,VALID,916.959,VALID,0,VALID,100,VALID,-0.0679233,VALID,20.0934,VALID,146,VALID,0.998047,
2009-07-27, 02:56:00,VALID,916.946,VALID,0,VALID,100,VALID,-0.101885,VALID,20.0383,VALID,135,VALID,1.0744,
2009-07-27, 02:57:00,VALID,916.935,VALID,0,VALID,100,VALID,-0.0849042,VALID,19.9829,VALID,131,VALID,1.22475,
2009-07-27, 02:58:00,VALID,916.924,VALID,0,VALID,100,VALID,-0.101885,VALID,19.9372,VALID,130,VALID,1.15927,
2009-07-27, 02:59:00,VALID,916.908,VALID,0,VALID,100,VALID,-0.0849042,VALID,19.9344,VALID,130,VALID,1.32106,
2009-07-27, 03:00:00,VALID,916.901,VALID,0,VALID,100,VALID,-0.0679233,VALID,19.9177,VALID,125,VALID,1.32635,
2009-07-27, 03:01:00,VALID,916.886,VALID,0,VALID,100,VALID,-0.0679233,VALID,19.8985,VALID,121,VALID,1.24809,
2009-07-27, 03:02:00,VALID,916.886,VALID,0,VALID,100,VALID,-0.0509425,VALID,19.8561,VALID,121,VALID,1.23347,
2009-07-27, 03:03:00,VALID,916.848,VALID,0,VALID,100,VALID,-0.101885,VALID,19.8076,VALID,115,VALID,1.0849,
2009-07-27, 03:04:00,VALID,916.834,VALID,0,VALID,100,VALID,-0.0849042,VALID,19.7814,VALID,125,VALID,1.22638,
2009-07-27, 03:05:00,VALID,916.802,VALID,0,VALID,100,VALID,-0.0849042,VALID,19.7882,VALID,128,VALID,1.44512,
2009-07-27, 03:06:00,VALID,916.796,VALID,0,VALID,100,VALID,-0.0509425,VALID,19.7819,VALID,124,VALID,1.16536,
2009-07-27, 03:07:00,VALID,916.76,VALID,0,VALID,100,VALID,-0.0509425,VALID,19.7647,VALID,133,VALID,0.947621,
2009-07-27, 03:08:00,VALID,916.752,VALID,0,VALID,100,VALID,-0.0849042,VALID,19.7485,VALID,133,VALID,1.03688,
2009-07-27, 03:09:00,VALID,916.711,VALID,0,VALID,100,VALID,-0.0509425,VALID,19.7592,VALID,140,VALID,0.865854,
2009-07-27, 03:10:00,VALID,916.688,VALID,0,VALID,100,VALID,-0.0849042,VALID,19.7689,VALID,138,VALID,1.02437,
2009-07-27, 03:11:00,VALID,916.663,VALID,0,VALID,100,VALID,-0.0509425,VALID,19.7784,VALID,139,VALID,0.830602,
2009-07-27, 03:12:00,VALID,916.671,VALID,0,VALID,100,VALID,-0.101885,VALID,19.7754,VALID,132,VALID,0.692951,
2009-07-27, 03:13:00,VALID,916.678,VALID,0,VALID,100,VALID,-0.0679233,VALID,19.7852,VALID,130,VALID,1.04554,
2009-07-27, 03:14:00,VALID,916.692,VALID,0,VALID,100,VALID,-0.0679233,VALID,19.7749,VALID,144,VALID,1.15123,
2009-07-27, 03:15:00,VALID,916.725,VALID,0,VALID,100,VALID,-0.101885,VALID,19.7747,VALID,141,VALID,1.50182,
2009-07-27, 03:16:00,VALID,916.748,VALID,0,VALID,100,VALID,-0.101885,VALID,19.7752,VALID,138,VALID,1.2745,
2009-07-27, 03:17:00,VALID,916.764,VALID,0,VALID,100,VALID,-0.0679233,VALID,19.7749,VALID,133,VALID,1.07813,
2009-07-27, 03:18:00,VALID,916.758,VALID,0,VALID,100,VALID,-0.0339617,VALID,19.7719,VALID,153,VALID,1.00249,
2009-07-27, 03:19:00,VALID,916.774,VALID,0,VALID,100,VALID,-0.0849042,VALID,19.7877,VALID,165,VALID,0.848899,
2009-07-27, 03:20:00,VALID,916.738,VALID,0,VALID,100,VALID,-0.0339617,VALID,19.8368,VALID,154,VALID,1.28047,
2009-07-27, 03:21:00,VALID,916.702,VALID,0,VALID,100,VALID,-0.0509425,VALID,19.8655,VALID,167,VALID,1.29557,
2009-07-27, 03:22:00,VALID,916.68,VALID,0,VALID,100,VALID,-0.0509425,VALID,19.885,VALID,167,VALID,1.11541,
2009-07-27, 03:23:00,VALID,916.642,VALID,0,VALID,100,VALID,-0.101885,VALID,19.8985,VALID,173,VALID,1.19354,
2009-07-27, 03:24:00,VALID,916.628,VALID,0,VALID,100,VALID,-0.0339617,VALID,19.8885,VALID,165,VALID,1.0593,
2009-07-27, 03:25:00,VALID,916.593,VALID,0,VALID,100,VALID,-0.0339617,VALID,19.8755,VALID,157,VALID,1.61864,
2009-07-27, 03:26:00,VALID,916.588,VALID,0,VALID,100,VALID,-0.0339617,VALID,19.8363,VALID,171,VALID,1.35955,
2009-07-27, 03:27:00,VALID,916.567,VALID,0,VALID,100,VALID,-0.0679233,VALID,19.8301,VALID,171,VALID,0.756882,
2009-07-27, 03:28:00,VALID,916.563,VALID,0,VALID,100,VALID,-0.0679233,VALID,19.8471,VALID,167,VALID,1.16479,
2009-07-27, 03:29:00,VALID,916.553,VALID,0,VALID,100,VALID,-0.0679233,VALID,19.8536,VALID,172,VALID,1.42759,
2009-07-27, 03:30:00,VALID,916.549,VALID,0,VALID,100,VALID,-0.0679233,VALID,19.8633,VALID,185,VALID,1.43197,
2009-07-27, 03:31:00,VALID,916.546,VALID,0,VALID,100,VALID,-0.0169808,VALID,19.8695,VALID,172,VALID,1.27361,
2009-07-27, 03:32:00,VALID,916.521,VALID,0,VALID,100,VALID,-0.0339617,VALID,19.8728,VALID,158,VALID,1.37536,
2009-07-27, 03:33:00,VALID,916.497,VALID,0,VALID,100,VALID,-0.0169808,VALID,19.8496,VALID,174,VALID,1.50372,
2009-07-27, 03:34:00,VALID,916.47,VALID,0,VALID,100,VALID,-0.0339617,VALID,19.8468,VALID,160,VALID,1.20499,
2009-07-27, 03:35:00,VALID,916.431,VALID,0,VALID,100,VALID,-0.0169808,VALID,19.8206,VALID,141,VALID,1.11962,
2009-07-27, 03:36:00,VALID,916.406,VALID,0,VALID,100,VALID,-0.0169808,VALID,19.7914,VALID,132,VALID,1.06995,
2009-07-27, 03:37:00,VALID,916.374,VALID,0,VALID,100,VALID,-0.0509425,VALID,19.7689,VALID,136,VALID,1.13223,
2009-07-27, 03:38:00,VALID,916.355,VALID,0,VALID,100,VALID,-0.0169808,VALID,19.7649,VALID,135,VALID,1.51239,
2009-07-27, 03:39:00,VALID,916.335,VALID,0,VALID,100,VALID,-0.0679233,VALID,19.8039,VALID,139,VALID,1.38263,
2009-07-27, 03:40:00,VALID,916.343,VALID,0,VALID,100,VALID,-0.0169808,VALID,19.8361,VALID,162,VALID,0.895349,